"2010-03-09 00:00:00",1745559,14.53,45.31,4.938,1.279,10.73,102.3287,5.243,6.506,42.05,0,109.9,13.46,6.01,7.3
"2010-03-09 00:00:30",1745560,14.99,46.31,4.461,1.632,10.87,102.3296,5.245,6.501,41.5,0,109.9,13.46,6.02,8.3
"2010-03-09 00:01:00",1745561,14.16,49.96,5.084,1.306,10.64,102.329,5.243,6.498,42.43,0,109.9,13.46,6.01,12.0
"2010-03-09 00:01:30",1745562,13.7,44.25,3.404,1.494,10.71,102.3313,5.249,6.492,42.38,0,109.9,13.46,6.02,6.2
"2010-03-09 00:02:00",1745563,15.14,46.62,3.627,1.701,10.67,102.3313,5.249,6.484,42.27,0,109.9,13.46,6.02,8.6
"2010-03-09 00:02:30",1745564,17.48,48.79,4.058,0.82,11,102.3302,5.246,6.475,41.98,0,109.9,13.47,6.02,10.8
"2010-03-09 00:03:00",1745565,15.76,46.08,5.07,1.295,11.17,102.3307,5.248,6.476,41.9,0,109.9,13.47,6.02,8.1
"2010-03-09 00:03:30",1745566,16.02,48.01,5.098,1.212,11.17,102.3307,5.248,6.483,41.83,0,109.9,13.47,6.02,10.0
"2010-03-09 00:04:00",1745567,14.59,43.84,4.168,1.724,11.12,102.3302,5.246,6.476,41.83,0,109.9,13.47,6.02,5.8
"2010-03-09 00:04:30",1745568,17.06,46.38,4.163,1.005,11.57,102.3319,5.251,6.468,41.53,0,109.9,13.47,6.02,8.4
"2010-03-09 00:05:00",1745569,16.92,45.66,4.145,1.084,11.32,102.3325,5.252,6.467,41.42,0,109.9,13.47,6.02,7.7
"2010-03-09 00:05:30",1745570,16.61,47.21,4.674,0.997,11.32,102.3327,5.253,6.488,41.74,0,109.9,13.47,6.02,9.2
"2010-03-09 00:06:00",1745571,15.99,45.98,4.464,1.45,11.38,102.3392,5.27,6.477,41.68,0,109.9,13.47,6.04,8.0
"2010-03-09 00:06:30",1745572,14.8,44.61,3.66,1.422,11.2,102.3486,5.293,6.466,41.63,0,109.9,13.47,6.06,6.6
"2010-03-09 00:07:00",1745573,17.43,46.37,3.829,1.211,11.32,102.3556,5.311,6.481,41.34,0,109.9,13.47,6.08,8.4
"2010-03-09 00:07:30",1745574,16.69,44.88,4.602,1.418,11.45,102.365,5.335,6.502,40.55,0,109.9,13.47,6.11,6.9
"2010-03-09 00:08:00",1745575,15.47,44.54,2.891,1.275,11.19,102.367,5.34,6.5,40.86,0,109.9,13.47,6.11,6.5
"2010-03-09 00:08:30",1745576,16.22,45.44,2.15,1.115,11.46,102.3673,5.341,6.519,40.35,0,109.9,13.47,6.11,7.4
"2010-03-09 00:09:00",1745577,15.8,44.27,3.376,1.051,11.34,102.3698,5.348,6.545,40.06,0,109.9,13.47,6.12,6.3
"2010-03-09 00:09:30",1745578,15.73,43.67,3.316,0.884,11.44,102.3876,5.393,6.54,39.92,0,109.9,13.47,6.16,5.7
"2010-03-09 00:10:00",1745579,15.26,42.74,4.082,0.949,11.49,102.4003,5.426,6.551,39.89,0,109.9,13.47,6.20,4.7
"2010-03-09 00:10:30",1745580,14.75,42.45,2.844,1.054,11.49,102.4009,5.427,6.573,39.71,0,109.9,13.47,6.20,4.5
"2010-03-09 00:11:00",1745581,15.99,43.43,3.983,0.968,11.31,102.4076,5.444,6.594,39.63,0,109.9,13.47,6.22,5.4
"2010-03-09 00:11:30",1745582,15.05,42.37,3.828,1.187,11.21,102.4184,5.472,6.606,39.84,0,109.8,13.47,6.24,4.4
"2010-03-09 00:12:00",1745583,15.45,42.42,3.366,1.198,11.28,102.4311,5.504,6.613,39.9,0,109.9,13.47,6.28,4.4
"2010-03-09 00:12:30",1745584,15,42.32,3.315,0.951,11.42,102.4351,5.514,6.628,39.73,0,109.9,13.46,6.29,4.3
"2010-03-09 00:13:00",1745585,15.26,42.89,3.432,1.067,11.26,102.4357,5.516,6.65,39.53,0,109.9,13.46,6.29,4.9
"2010-03-09 00:13:30",1745586,15.48,42.52,3.293,1.166,11.23,102.436,5.517,6.681,39.31,0,109.9,13.46,6.29,4.5
"2010-03-09 00:14:00",1745587,15.57,43.06,3.941,1.561,11.28,102.4336,5.511,6.685,39.67,0,109.9,13.46,6.28,5.1
"2010-03-09 00:14:30",1745588,15.6,43.1,2.757,1.133,11.34,102.4342,5.512,6.677,39.36,0,109.9,13.46,6.28,5.1
"2010-03-09 00:15:00",1745589,17.39,44.55,3.534,1.264,11.3,102.4354,5.515,6.701,39.18,0,109.9,13.46,6.29,6.5
"2010-03-09 00:15:30",1745590,16.5,43.8,4.152,1.323,11.53,102.441,5.53,6.74,39.34,0,109.8,13.46,6.30,5.8
"2010-03-09 00:16:00",1745591,15.59,42.8,3.664,1.087,11.36,102.4481,5.548,6.701,39.43,0,109.9,13.46,6.32,4.8
"2010-03-09 00:16:30",1745592,14.89,42.42,3.017,1.065,11.43,102.4509,5.555,6.72,39.22,0,109.9,13.46,6.33,4.4
"2010-03-09 00:17:00",1745593,15.86,42.96,3.19,1.193,11.3,102.46,5.578,6.737,39.01,0,109.9,13.46,6.35,5.0
"2010-03-09 00:17:30",1745594,15.76,42.89,3.368,1.336,11.29,102.4648,5.59,6.748,39.37,0,109.9,13.46,6.36,4.9
"2010-03-09 00:18:00",1745595,16.11,43.48,3.745,0.968,11.31,102.4651,5.591,6.741,39.33,0,109.9,13.46,6.36,5.5
"2010-03-09 00:18:30",1745596,16.66,43.54,3.687,1.123,11.73,102.4676,5.597,6.757,39.29,0,109.9,13.46,6.37,5.5
"2010-03-09 00:19:00",1745597,14.74,41.5,3.076,0.928,11.38,102.4685,5.6,6.762,39.28,0,109.9,13.46,6.37,3.5
"2010-03-09 00:19:30",1745598,15.54,42.03,3.878,0.819,11.42,102.4707,5.605,6.763,39.52,0,109.9,13.46,6.38,4.0
"2010-03-09 00:20:00",1745599,15.04,41.65,3.899,0.962,11.3,102.4693,5.602,6.774,39.52,0,109.9,13.46,6.37,3.7
"2010-03-09 00:20:30",1745600,15.13,41.99,3.268,0.862,11.47,102.4705,5.605,6.766,39.56,0,109.9,13.47,6.38,4.0
"2010-03-09 00:21:00",1745601,14.51,41.45,2.996,0.922,11.19,102.471,5.606,6.778,39.6,0,109.9,13.47,6.38,3.5
"2010-03-09 00:21:30",1745602,14.77,41.36,3.419,0.922,11.21,102.4702,5.604,6.773,39.59,0,109.9,13.46,6.38,3.4
"2010-03-09 00:22:00",1745603,15.42,41.62,4.51,0.971,11.33,102.471,5.606,6.764,39.76,0,109.9,13.47,6.38,3.6
"2010-03-09 00:22:30",1745604,15.41,42.4,2.793,0.867,11.36,102.4707,5.605,6.791,39.91,0,109.9,13.47,6.38,4.4
"2010-03-09 00:23:00",1745605,14.41,40.52,3.41,0.6,11.15,102.4719,5.608,6.774,39.97,0,109.9,13.47,6.38,2.5
"2010-03-09 00:23:30",1745606,14.57,40.5,3.956,0.585,11.31,102.4699,5.603,6.781,39.95,0,109.9,13.46,6.37,2.5
"2010-03-09 00:24:00",1745607,15,41.36,3.806,1.055,11.12,102.4696,5.602,6.755,39.86,0,109.9,13.47,6.37,3.4
"2010-03-09 00:24:30",1745608,14.86,41.23,3.497,0.542,11.33,102.4696,5.602,6.763,39.9,0,109.9,13.46,6.37,3.2
"2010-03-09 00:25:00",1745609,15.63,42.66,3.451,1.06,11.1,102.4707,5.605,6.786,40,0,109.9,13.47,6.38,4.7
"2010-03-09 00:25:30",1745610,14.8,41.7,3.362,0.766,11.13,102.4696,5.602,6.771,40.06,0,109.9,13.47,6.37,3.7
"2010-03-09 00:26:00",1745611,14.39,41.07,3.321,0.758,11.18,102.4679,5.598,6.758,40.02,0,109.9,13.47,6.37,3.1
"2010-03-09 00:26:30",1745612,14.37,41.07,3.079,0.499,11.28,102.4668,5.595,6.773,39.74,0,109.9,13.47,6.37,3.1
"2010-03-09 00:27:00",1745613,14.03,40.19,3.556,0.77,11.12,102.4654,5.592,6.774,39.7,0,109.9,13.46,6.36,2.2
"2010-03-09 00:27:30",1745614,14.44,40.6,3.968,0.712,11.16,102.4634,5.587,6.775,39.78,0,109.8,13.47,6.36,2.6
"2010-03-09 00:28:00",1745615,14.41,41.15,3.024,0.799,11.06,102.4634,5.587,6.757,39.94,0,109.9,13.47,6.36,3.2
"2010-03-09 00:28:30",1745616,14.81,40.71,3.328,0.698,11.22,102.462,5.583,6.76,39.95,0,109.9,13.46,6.35,2.7
"2010-03-09 00:29:00",1745617,14.44,40.02,3.635,0.785,11.1,102.4592,5.576,6.772,39.84,0,109.9,13.46,6.35,2.0
"2010-03-09 00:29:30",1745618,15.11,40.82,3.888,0.764,11.18,102.4589,5.575,6.777,40.19,0,109.9,13.46,6.35,2.8
"2010-03-09 00:30:00",1745619,14.96,40.94,3.567,0.743,11.16,102.4665,5.595,6.762,40.14,0,109.9,13.46,6.37,2.9
"2010-03-09 00:30:30",1745620,14.63,40.56,2.801,0.75,11.34,102.4691,5.601,6.779,40.01,0,109.9,13.46,6.37,2.6
"2010-03-09 00:31:00",1745621,15.37,41.73,3.709,0.767,11.19,102.469,5.601,6.764,40.34,0,109.9,13.46,6.37,3.7
"2010-03-09 00:31:30",1745622,14.79,40.36,3.388,0.703,11.24,102.4708,5.605,6.777,40.26,0,109.9,13.46,6.38,2.4
"2010-03-09 00:32:00",1745623,14.78,40.41,3.162,0.777,11.2,102.4728,5.611,6.768,39.64,0,109.9,13.46,6.38,2.4
"2010-03-09 00:32:30",1745624,14.74,40.81,2.808,0.729,11.29,102.4728,5.611,6.768,39.91,0,109.9,13.46,6.38,2.8
"2010-03-09 00:33:00",1745625,15.14,40,4.029,0.605,11.21,102.4716,5.608,6.777,40.08,0,109.9,13.46,6.38,2.0
"2010-03-09 00:33:30",1745626,15.3,40.61,4.032,0.756,11.24,102.4705,5.605,6.786,40.18,0,109.9,13.46,6.38,2.6
"2010-03-09 00:34:00",1745627,15.15,41.29,3.652,0.866,11.3,102.4722,5.609,6.787,40.24,0,109.9,13.46,6.38,3.3
"2010-03-09 00:34:30",1745628,15.11,41.6,3.003,0.913,11.34,102.4725,5.61,6.772,40.37,0,109.9,13.46,6.38,3.6
"2010-03-09 00:35:00",1745629,15.18,41.39,3.099,1.031,11.23,102.4705,5.605,6.798,40.31,0,109.9,13.46,6.38,3.4
"2010-03-09 00:35:30",1745630,15.55,42.14,3.778,1.049,11.19,102.4707,5.605,6.803,40.17,0,109.9,13.46,6.38,4.1
"2010-03-09 00:36:00",1745631,15.49,41.81,3.629,0.979,11.35,102.4733,5.612,6.808,40.01,0,109.9,13.46,6.38,3.8
"2010-03-09 00:36:30",1745632,15.23,41.16,3.798,0.68,11.47,102.479,5.627,6.808,39.93,0,109.9,13.46,6.40,3.2
"2010-03-09 00:37:00",1745633,15.52,41.86,3.451,0.971,11.26,102.4866,5.646,6.811,40,0,109.9,13.46,6.42,3.9
"2010-03-09 00:37:30",1745634,15.16,41.27,3.611,1.008,11.21,102.4889,5.652,6.825,40.11,0,109.9,13.46,6.42,3.3
"2010-03-09 00:38:00",1745635,15.42,41.02,4.635,0.895,11.47,102.4914,5.658,6.838,40.23,0,109.9,13.46,6.43,3.0
"2010-03-09 00:38:30",1745636,14.91,41.46,3.006,0.79,11.48,102.4965,5.671,6.829,40.24,0,109.9,13.46,6.44,3.5
"2010-03-09 00:39:00",1745637,15.43,42.22,2.835,0.882,11.22,102.4948,5.667,6.829,40.48,0,109.9,13.46,6.44,4.2
"2010-03-09 00:39:30",1745638,16.12,42.57,3.299,0.899,11.23,102.4965,5.671,6.853,40.62,0,109.9,13.46,6.44,4.6
"2010-03-09 00:40:00",1745639,16.17,42.88,3.125,0.96,11.23,102.4965,5.671,6.845,40.76,0,109.9,13.46,6.44,4.9
"2010-03-09 00:40:30",1745640,15.61,42.53,2.15,1.008,11.41,102.4976,5.674,6.845,40.47,0,109.9,13.46,6.45,4.5
"2010-03-09 00:41:00",1745641,15.46,42.04,2.96,0.901,11.31,102.493,5.662,6.833,40.31,0,109.9,13.46,6.43,4.0
"2010-03-09 00:41:30",1745642,15.64,42.11,3.333,1.083,11.3,102.4951,5.668,6.837,40.51,0,109.9,13.46,6.44,4.1
"2010-03-09 00:42:00",1745643,17.4,43.44,3.611,1.156,11.41,102.4962,5.67,6.836,40.88,0,109.9,13.46,6.44,5.4
"2010-03-09 00:42:30",1745644,17.15,43.21,3.853,0.668,11.64,102.4948,5.667,6.822,40.88,0,109.8,13.46,6.44,5.2
"2010-03-09 00:43:00",1745645,15.4,41.43,4.15,0.816,11.65,102.4931,5.662,6.848,40.77,0,109.9,13.46,6.43,3.4
"2010-03-09 00:43:30",1745646,15.16,41.33,2.952,1.037,11.46,102.4956,5.669,6.856,40.4,0,109.9,13.46,6.44,3.3
"2010-03-09 00:44:00",1745647,14.86,40.81,3.44,0.814,11.4,102.4967,5.672,6.824,40.41,0,109.9,13.46,6.44,2.8
"2010-03-09 00:44:30",1745648,15.96,42.4,2.874,1.162,11.47,102.4993,5.678,6.846,40.6,0,109.9,13.46,6.45,4.4
"2010-03-09 00:45:00",1745649,15.32,41.5,3.84,1.013,11.4,102.5004,5.681,6.851,40.54,0,109.9,13.46,6.45,3.5
"2010-03-09 00:45:30",1745650,16.47,42.64,3.622,0.698,11.51,102.5007,5.682,6.869,41.11,0,109.9,13.46,6.45,4.6
"2010-03-09 00:46:00",1745651,15.4,41.31,3.924,0.675,11.49,102.5012,5.683,6.848,40.92,0,109.9,13.46,6.46,3.3
"2010-03-09 00:46:30",1745652,16.25,42.38,3.633,0.779,11.66,102.5044,5.691,6.863,41.12,0,109.9,13.46,6.46,4.4
"2010-03-09 00:47:00",1745653,15.49,41.31,3.568,0.87,11.41,102.5032,5.688,6.84,41.08,0,109.9,13.46,6.46,3.3
"2010-03-09 00:47:30",1745654,15.26,41.12,4.245,0.752,11.45,102.5032,5.688,6.873,41.25,0,109.9,13.46,6.46,3.1
"2010-03-09 00:48:00",1745655,15.09,40.59,4.007,0.741,11.57,102.5024,5.686,6.881,41.28,0,109.9,13.46,6.46,2.6
"2010-03-09 00:48:30",1745656,14.68,39.31,2.89,0.612,11.44,102.5029,5.688,6.873,40.78,0,109.9,13.46,6.46,1.3
"2010-03-09 00:49:00",1745657,14.57,39.49,3.578,0.778,11.32,102.5026,5.687,6.871,40.67,0,109.9,13.46,6.46,1.5
"2010-03-09 00:49:30",1745658,14.87,39.21,4.025,0.637,11.5,102.5032,5.688,6.871,41.06,0,109.9,13.46,6.46,1.2
"2010-03-09 00:50:00",1745659,14.88,39.05,3.45,0.736,11.21,102.5029,5.688,6.864,41,0,109.9,13.46,6.46,1.0
"2010-03-09 00:50:30",1745660,15.34,38.53,2.917,0.711,11.48,102.5018,5.685,6.866,40.96,0,109.9,13.46,6.46,0.5
"2010-03-09 00:51:00",1745661,15.15,39.65,3.804,0.696,11.29,102.5021,5.685,6.884,41.25,0,109.9,13.46,6.46,1.7
"2010-03-09 00:51:30",1745662,15.11,40.04,3.356,0.865,11.34,102.5021,5.685,6.882,41.76,0,109.9,13.46,6.46,2.0
"2010-03-09 00:52:00",1745663,15.5,40.15,3.987,0.671,11.39,102.5041,5.691,6.891,41.83,0,109.9,13.46,6.46,2.2
"2010-03-09 00:52:30",1745664,15.08,40.11,1.767,0.804,11.45,102.5035,5.689,6.868,41.65,0,109.9,13.46,6.46,2.1
"2010-03-09 00:53:00",1745665,15.36,40.04,3.77,0.812,11.37,102.5021,5.685,6.873,42.16,0,109.9,13.46,6.46,2.0
"2010-03-09 00:53:30",1745666,15.28,40.29,4.017,0.636,11.44,102.5021,5.685,6.893,42.56,0,109.9,13.46,6.46,2.3
"2010-03-09 00:54:00",1745667,15.28,40.69,2.773,0.845,11.31,102.5023,5.686,6.891,42.87,0,109.9,13.46,6.46,2.7
"2010-03-09 00:54:30",1745668,15.2,40.65,2.824,0.837,11.45,102.5021,5.685,6.897,42.9,0,109.9,13.46,6.46,2.7
"2010-03-09 00:55:00",1745669,14.98,39.78,3.531,0.677,11.37,102.5035,5.689,6.863,42.68,0,109.9,13.46,6.46,1.8
"2010-03-09 00:55:30",1745670,15.12,39.34,3.307,0.721,11.36,102.5015,5.684,6.893,42.19,0,109.9,13.46,6.46,1.3
"2010-03-09 00:56:00",1745671,15.27,39.45,4.026,0.702,11.25,102.5018,5.685,6.883,42.64,0,109.9,13.46,6.46,1.5
"2010-03-09 00:56:30",1745672,15.02,39.46,3.089,0.667,11.51,102.5021,5.685,6.874,42.62,0,109.9,13.46,6.46,1.5
"2010-03-09 00:57:00",1745673,15.04,39.65,3.107,0.952,11.23,102.5021,5.685,6.882,42.37,0,109.9,13.46,6.46,1.7
"2010-03-09 00:57:30",1745674,15.33,40,2.873,0.87,11.24,102.5018,5.685,6.886,42.48,0,109.9,13.46,6.46,2.0
"2010-03-09 00:58:00",1745675,15.01,39.6,3.71,0.753,11.33,102.5006,5.682,6.873,42.37,0,109.9,13.46,6.45,1.6
"2010-03-09 00:58:30",1745676,15.2,39.09,3.608,0.52,11.52,102.5009,5.682,6.888,42.39,0,109.9,13.46,6.45,1.1
"2010-03-09 00:59:00",1745677,14.97,39.46,3.282,0.732,11.32,102.5021,5.685,6.881,42.22,0,109.9,13.46,6.46,1.5
"2010-03-09 00:59:30",1745678,15.02,39.69,3.573,0.619,11.31,102.5015,5.684,6.886,42.33,0,109.9,13.46,6.46,1.7
"2010-03-09 01:00:00",1745679,15.26,39.59,4.293,0.875,11.43,102.5015,5.684,6.897,42.62,0,109.9,13.46,6.46,1.6
"2010-03-09 01:00:30",1745680,15.14,40.3,2.545,1.116,11.43,102.5018,5.685,6.889,42.72,0,109.9,13.46,6.46,2.3
"2010-03-09 01:01:00",1745681,15.2,39.99,3.845,0.648,11.39,102.5009,5.682,6.88,43.61,0,109.9,13.46,6.45,2.0
"2010-03-09 01:01:30",1745682,14.91,39.81,3.583,0.68,11.32,102.5018,5.685,6.891,43.3,0,109.9,13.46,6.46,1.8
"2010-03-09 01:02:00",1745683,14.85,39.54,3.755,0.809,11.3,102.5012,5.683,6.881,43.2,0,109.9,13.46,6.46,1.5
"2010-03-09 01:02:30",1745684,14.96,40.94,2.79,0.707,11.54,102.5029,5.688,6.879,43.61,0,109.9,13.46,6.46,2.9
"2010-03-09 01:03:00",1745685,14.98,39.94,3.527,0.644,11.41,102.5009,5.682,6.874,43.67,0,109.9,13.46,6.45,1.9
"2010-03-09 01:03:30",1745686,14.93,39.6,3.766,0.671,11.39,102.5015,5.684,6.886,43.12,0,109.9,13.46,6.46,1.6
"2010-03-09 01:04:00",1745687,15.04,40.13,3.552,0.75,11.38,102.5012,5.683,6.876,43.43,0,109.9,13.46,6.46,2.1
"2010-03-09 01:04:30",1745688,14.84,40.18,3.69,0.487,11.52,102.5009,5.682,6.871,43.31,0,109.9,13.46,6.45,2.2
"2010-03-09 01:05:00",1745689,14.59,39.33,3.371,0.648,11.42,102.5015,5.684,6.892,43.03,0,109.9,13.46,6.46,1.3
"2010-03-09 01:05:30",1745690,14.96,40.13,2.908,0.823,11.28,102.5018,5.685,6.897,43.42,0,109.9,13.46,6.46,2.1
"2010-03-09 01:06:00",1745691,15.19,39.7,3.25,0.895,11.27,102.5023,5.686,6.863,43.52,0,109.9,13.46,6.46,1.7
"2010-03-09 01:06:30",1745692,15.13,39.77,3.625,0.706,11.48,102.5018,5.685,6.879,43.74,0,109.9,13.46,6.46,1.8
"2010-03-09 01:07:00",1745693,14.69,39.9,3.312,0.707,11.35,102.5026,5.687,6.885,43.7,0,109.9,13.46,6.46,1.9
"2010-03-09 01:07:30",1745694,15.07,40.25,3.265,0.939,11.33,102.5026,5.687,6.891,43.65,0,109.9,13.46,6.46,2.2
"2010-03-09 01:08:00",1745695,14.75,40.3,3.523,0.761,11.34,102.5026,5.687,6.902,43.76,0,109.9,13.46,6.46,2.3
"2010-03-09 01:08:30",1745696,14.63,39.88,3.453,0.477,11.44,102.5021,5.685,6.897,43.37,0,109.9,13.46,6.46,1.9
"2010-03-09 01:09:00",1745697,14.68,39.98,3.771,0.638,11.45,102.5018,5.685,6.906,43.62,0,109.9,13.46,6.46,2.0
"2010-03-09 01:09:30",1745698,14.56,40.99,3.085,0.905,11.19,102.5018,5.685,6.903,43.92,0,109.9,13.46,6.46,3.0
"2010-03-09 01:10:00",1745699,14.34,39.67,3.287,0.73,11.26,102.5023,5.686,6.886,43.22,0,109.9,13.46,6.46,1.7
"2010-03-09 01:10:30",1745700,14.46,39.41,3.915,0.466,11.46,102.5015,5.684,6.886,43.15,0,109.9,13.46,6.46,1.4
"2010-03-09 01:11:00",1745701,14.31,39.62,2.776,0.826,11.18,102.5026,5.687,6.886,43.16,0,109.9,13.46,6.46,1.6
"2010-03-09 01:11:30",1745702,14.58,39.59,3.595,0.815,11.26,102.5018,5.685,6.894,43.24,0,109.9,13.46,6.46,1.6
"2010-03-09 01:12:00",1745703,14.27,39.03,3.534,0.74,11.23,102.5015,5.684,6.875,42.98,0,109.9,13.46,6.46,1.0
"2010-03-09 01:12:30",1745704,14.31,38.96,3.019,0.65,11.29,102.5035,5.689,6.889,42.68,0,109.9,13.46,6.46,1.0
"2010-03-09 01:13:00",1745705,14.89,38.64,3.386,0.727,11.28,102.5032,5.688,6.893,43.08,0,109.9,13.46,6.46,0.6
"2010-03-09 01:13:30",1745706,14.58,39.5,4.104,0.644,11.33,102.5026,5.687,6.901,43.04,0,109.9,13.46,6.46,1.5
"2010-03-09 01:14:00",1745707,14.28,38.99,3.708,0.677,11.16,102.5015,5.684,6.896,43.01,0,109.9,13.46,6.46,1.0
"2010-03-09 01:14:30",1745708,14.3,39.3,3.155,0.555,11.39,102.5032,5.688,6.898,42.81,0,109.9,13.46,6.46,1.3
"2010-03-09 01:15:00",1745709,14.13,39.12,3.737,0.585,11.3,102.5023,5.686,6.916,42.74,0,109.9,13.46,6.46,1.1
"2010-03-09 01:15:30",1745710,14.28,39.84,3.006,0.939,11.23,102.5037,5.69,6.922,42.89,0,109.9,13.46,6.46,1.8
"2010-03-09 01:16:00",1745711,14.03,39.2,3.603,0.812,11.24,102.5074,5.699,6.899,42.73,0,109.9,13.46,6.47,1.2
"2010-03-09 01:16:30",1745712,14.64,38.87,4.137,0.56,11.46,102.5145,5.717,6.9,42.56,0,109.9,13.46,6.49,0.9
"2010-03-09 01:17:00",1745713,14.4,39.46,3.591,0.768,11.23,102.5182,5.727,6.91,42.44,0,109.9,13.46,6.50,1.5
"2010-03-09 01:17:30",1745714,14.94,39.12,3.75,0.997,11.3,102.5199,5.731,6.923,42.43,0,109.9,13.46,6.50,1.1
"2010-03-09 01:18:00",1745715,14.86,39.27,3.44,0.775,11.38,102.5212,5.734,6.923,42.53,0,109.9,13.46,6.51,1.3
"2010-03-09 01:18:30",1745716,14.48,38.83,3.33,0.726,11.49,102.5283,5.753,6.942,42.34,0,109.9,13.46,6.52,0.8
"2010-03-09 01:19:00",1745717,14.77,38.53,4.037,0.761,11.46,102.5309,5.759,6.926,42.59,0,109.9,13.46,6.53,0.5
"2010-03-09 01:19:30",1745718,14.37,38.57,4.067,0.659,11.49,102.5345,5.768,6.939,42.66,0,109.9,13.46,6.54,0.6
"2010-03-09 01:20:00",1745719,14.46,38.55,3.691,0.7,11.32,102.5366,5.774,6.934,42.49,0,109.9,13.46,6.55,0.5
"2010-03-09 01:20:30",1745720,14.4,38.53,3.379,0.607,11.54,102.534,5.767,6.925,42.24,0,109.9,13.46,6.54,0.5
"2010-03-09 01:21:00",1745721,14.53,38.45,2.596,1.01,11.24,102.5371,5.775,6.952,42.5,0,109.9,13.46,6.55,0.5
"2010-03-09 01:21:30",1745722,14.55,39.56,3.459,0.849,11.27,102.5354,5.771,6.95,42.94,0,109.9,13.46,6.54,1.6
"2010-03-09 01:22:00",1745723,14.45,39.89,3.05,0.885,11.28,102.5363,5.773,6.933,42.85,0,109.9,13.46,6.55,1.9
"2010-03-09 01:22:30",1745724,14.33,39.71,2.967,0.598,11.41,102.5354,5.771,6.948,42.97,0,109.9,13.46,6.54,1.7
"2010-03-09 01:23:00",1745725,14.51,38.74,3.644,0.859,11.35,102.5351,5.77,6.948,42.8,0,109.9,13.46,6.54,0.7
"2010-03-09 01:23:30",1745726,14.51,38.71,3.696,0.718,11.35,102.5357,5.771,6.959,42.78,0,109.9,13.46,6.54,0.7
"2010-03-09 01:24:00",1745727,14.74,38.56,3.369,0.864,11.38,102.5342,5.768,6.976,42.52,0,109.9,13.46,6.54,0.6
"2010-03-09 01:24:30",1745728,14.58,39.24,3.192,0.638,11.5,102.5357,5.771,6.969,42.66,0,109.9,13.46,6.54,1.2
"2010-03-09 01:25:00",1745729,14.75,38.63,2.379,0.954,11.33,102.5337,5.766,6.976,42.73,0,109.9,13.46,6.54,0.6
"2010-03-09 01:25:30",1745730,14.83,38.31,3.378,0.901,11.43,102.5357,5.771,6.981,42.51,0,109.9,13.46,6.54,0.3
"2010-03-09 01:26:00",1745731,14.52,38.8,4.147,0.581,11.48,102.5359,5.772,6.969,42.36,0,109.9,13.46,6.54,0.8
"2010-03-09 01:26:30",1745732,14.49,39.21,2.698,0.658,11.58,102.5416,5.786,6.996,42.13,0,109.9,13.46,6.56,1.2
"2010-03-09 01:27:00",1745733,14.24,38.87,3.789,0.69,11.41,102.5504,5.809,6.992,42.07,0,109.9,13.46,6.58,0.9
"2010-03-09 01:27:30",1745734,14.31,38.47,3.429,0.692,11.29,102.5526,5.814,7.009,41.95,0,109.9,13.46,6.59,0.5
"2010-03-09 01:28:00",1745735,14.76,37.75,4.106,0.651,11.44,102.5591,5.831,7.007,41.69,0,109.9,13.46,6.60,359.8
"2010-03-09 01:28:30",1745736,14.85,38.56,2.243,0.945,11.44,102.5608,5.835,6.993,41.49,0,109.9,13.46,6.61,0.6
"2010-03-09 01:29:00",1745737,14.83,38.28,3.517,0.792,11.39,102.5673,5.852,7.002,41.28,0,109.9,13.46,6.62,0.3
"2010-03-09 01:29:30",1745738,15.51,38,3.947,1.154,11.43,102.5673,5.852,7.019,41.06,0,109.9,13.46,6.62,0.0
"2010-03-09 01:30:00",1745739,15.24,37.44,3.257,0.957,11.52,102.5676,5.853,7.011,40.99,0,109.9,13.46,6.63,359.4
"2010-03-09 01:30:30",1745740,15.58,38.65,2.753,0.717,11.61,102.5682,5.854,7.015,40.81,0,109.9,13.46,6.63,0.7
"2010-03-09 01:31:00",1745741,15.01,38.42,3.769,0.794,11.43,102.5661,5.849,7.033,40.9,0,109.9,13.46,6.62,0.4
"2010-03-09 01:31:30",1745742,15.38,38.44,3.848,0.775,11.48,102.5661,5.849,7.059,41.54,0,109.9,13.46,6.62,0.4
"2010-03-09 01:32:00",1745743,16.02,37.09,3.402,0.727,11.6,102.5673,5.852,7.052,41.36,0,109.9,13.46,6.62,359.1
"2010-03-09 01:32:30",1745744,15.73,39,3.231,0.87,11.82,102.5817,5.889,7.054,41.55,0,109.9,13.46,6.66,1.0
"2010-03-09 01:33:00",1745745,15.45,38.92,3.661,0.935,11.68,102.6018,5.94,7.069,41.32,0,109.9,13.46,6.71,0.9
"2010-03-09 01:33:30",1745746,15.38,38.16,3.554,0.76,11.69,102.5998,5.935,7.086,41.34,0,109.9,13.46,6.71,0.2
"2010-03-09 01:34:00",1745747,15.23,38.3,4.2,0.711,11.9,102.6049,5.948,7.111,40.88,0,109.9,13.46,6.72,0.3
"2010-03-09 01:34:30",1745748,14.96,39.14,2.049,0.786,11.73,102.6153,5.975,7.112,40.44,0,109.9,13.46,6.75,1.1
"2010-03-09 01:35:00",1745749,15.54,37.96,3.465,0.71,11.68,102.6334,6.021,7.144,40.63,0,109.9,13.46,6.79,360.0
"2010-03-09 01:35:30",1745750,16.43,36.98,4.331,0.859,11.86,102.6331,6.02,7.163,41.2,0,109.9,13.46,6.79,359.0
"2010-03-09 01:36:00",1745751,16.19,36.54,2.838,0.914,11.73,102.6342,6.023,7.17,40.8,0,109.9,13.46,6.80,358.5
"2010-03-09 01:36:30",1745752,15.75,38.6,2.389,1.092,11.79,102.641,6.04,7.195,39.8,0,109.9,13.45,6.81,0.6
"2010-03-09 01:37:00",1745753,16.14,36.84,3.913,0.796,11.76,102.6591,6.086,7.214,40.2,0,109.9,13.45,6.86,358.8
"2010-03-09 01:37:30",1745754,15.69,37.58,3.933,0.728,11.89,102.6641,6.099,7.233,40.23,0,109.9,13.45,6.87,359.6
"2010-03-09 01:38:00",1745755,15.6,38.44,3.516,0.951,11.87,102.6653,6.102,7.254,41.89,0,109.9,13.45,6.88,0.4
"2010-03-09 01:38:30",1745756,15.58,38.38,2.788,0.662,11.82,102.6615,6.093,7.248,41.88,0,109.9,13.46,6.87,0.4
"2010-03-09 01:39:00",1745757,15.67,37.71,3.606,0.741,11.64,102.6655,6.103,7.267,41.83,0,109.9,13.46,6.88,359.7
"2010-03-09 01:39:30",1745758,15.2,37.33,3.617,0.724,11.71,102.6729,6.122,7.288,41.38,0,109.9,13.46,6.90,359.3
"2010-03-09 01:40:00",1745759,15.78,36.9,3.591,0.841,11.77,102.6765,6.131,7.313,40.71,0,109.9,13.46,6.90,358.9
"2010-03-09 01:40:30",1745760,16.14,37.34,3.437,0.708,11.87,102.679,6.137,7.302,40.34,0,109.9,13.46,6.91,359.3
"2010-03-09 01:41:00",1745761,17.35,35.29,3.338,0.682,11.96,102.687,6.158,7.322,40.29,0,109.9,13.46,6.93,357.3
"2010-03-09 01:41:30",1745762,17.2,35.47,3.677,1.032,11.91,102.6949,6.178,7.357,39.84,0,109.9,13.46,6.95,357.5
"2010-03-09 01:42:00",1745763,18.13,34.04,3.96,1.078,12.17,102.6951,6.179,7.346,39.28,0,109.9,13.46,6.95,356.0
"2010-03-09 01:42:30",1745764,16.13,36.34,2.956,0.895,12.1,102.6948,6.178,7.339,39.3,0,109.9,13.46,6.95,358.3
"2010-03-09 01:43:00",1745765,16.55,35.97,3.69,1.024,11.91,102.694,6.176,7.366,39.33,0,109.9,13.46,6.95,358.0
"2010-03-09 01:43:30",1745766,15.92,36.48,4.122,0.677,12.08,102.6943,6.176,7.388,39.37,0,109.9,13.46,6.95,358.5
"2010-03-09 01:44:00",1745767,15.84,36.92,3.354,0.636,11.94,102.6963,6.181,7.379,39.66,0,109.9,13.46,6.96,358.9
"2010-03-09 01:44:30",1745768,15.63,37.6,3.527,0.789,11.9,102.7021,6.196,7.39,39.17,0,109.9,13.46,6.97,359.6
"2010-03-09 01:45:00",1745769,15.82,36.9,3.841,0.823,11.99,102.715,6.23,7.42,38.03,0,109.9,13.46,7.00,358.9
"2010-03-09 01:45:30",1745770,16.48,36.38,3.964,1.063,11.97,102.7236,6.251,7.422,37.93,0,109.9,13.46,7.03,358.4
"2010-03-09 01:46:00",1745771,15.85,37.39,3.892,0.74,12.01,102.7235,6.251,7.427,38.07,0,109.9,13.46,7.03,359.4
"2010-03-09 01:46:30",1745772,15.62,37.46,2.719,0.612,12,102.7212,6.245,7.435,39.35,0,109.9,13.46,7.02,359.5
"2010-03-09 01:47:00",1745773,15.43,38.17,3.394,0.683,11.74,102.7218,6.247,7.445,39.92,0,109.9,13.46,7.02,0.2
"2010-03-09 01:47:30",1745774,15.53,38.13,3.044,0.88,11.77,102.7221,6.247,7.451,39.47,0,109.9,13.46,7.02,0.1
"2010-03-09 01:48:00",1745775,15.27,37.62,3.696,0.928,11.82,102.7203,6.243,7.463,38.88,0,109.9,13.46,7.02,359.6
"2010-03-09 01:48:30",1745776,14.97,38.95,2.213,0.93,11.82,102.7224,6.248,7.452,38.16,0,109.9,13.46,7.02,1.0
"2010-03-09 01:49:00",1745777,15.51,38.18,4.117,0.64,11.74,102.7221,6.247,7.461,37.6,0,109.9,13.46,7.02,0.2